Miscellaneous Local Product
Issued by NWS North Platte, NE

Home | Current Version | Previous Version | Graphics & Text | Print | Product List | Glossary On
Versions: 1 2 3 4 5 6 7 8 9 10 11 12 13 14 15 16 17 18 19 20 21 22 23 24 25 26 27 28 29 30 31 32 33 34 35 36 37 38 39 40 41 42 43 44 45 46 47 48 49 50
000
AXUS43 KLBF 030510
MISLBF


WESTERN AND NORTH CENTRAL NEBRASKA HOURLY WEATHER ROUNDUP
NATIONAL WEATHER SERVICE NORTH PLATTE NE
1100 PM CST MON MAR 02 2015

***STATIONS NOT REPORTING VARIABLES SUCH AS SKY/WEATHER OR
PRESSURE ARE PROVIDED BY THE NEBRASKA DEPARTMENT OF
ROADS...RAWS...AND APRS NETWORKS...AND ARE NOT UNDER
NATIONAL WEATHER SERVICE QUALITY CONTROL***

...OBSERVATIONS IN AND NEAR THE EASTERN PANHANDLE OF NEBRASKA...

CITY           SKY/WX    TMP DP  RH WIND       PRES   REMARKS
PINE RIDGE     LGT SNOW  30  24  78 S5        29.67R WCI  25
CHADRON        LGT SNOW  31  26  82 SW3       29.68R
ALLIANCE       CLOUDY    29  25  85 SW8       29.67R WCI  21
SIDNEY         CLOUDY    29  27  92 NW14      29.64R FOG     WCI  18
WHITECLAY        N/A     29  22  74 CALM        N/A
CRESCENT LAKE    N/A     27  25  91 S6G13       N/A  WCI  21
LISCO            N/A     32  27  80 CALM        N/A
BIG SPRINGS      N/A     30  29  94 SE12        N/A  WCI  20
LEWELLEN         N/A     28  27  93 SE7         N/A  WCI  21
$$

...OBSERVATIONS IN NORTH CENTRAL NEBRASKA...

CITY           SKY/WX    TMP DP  RH WIND       PRES   REMARKS
VALENTINE      CLOUDY    32  23  69 S10       29.69F WCI  24
THEDFORD       CLOUDY    30  25  80 S15       29.68F WCI  19
AINSWORTH      CLOUDY    31  20  65 S13       29.70F WCI  21
O`NEILL        CLOUDY    32  17  55 S12G18    29.79F WCI  23
ORD            CLOUDY    29  15  56 S14       29.77F WCI  18
BROKEN BOW     CLOUDY    30  18  60 S16G24    29.72F WCI  19
BROWNLEE         N/A     30  25  80 S15         N/A  WCI  19
SPRINGVIEW       N/A     31  20  62 S5G15       N/A  WCI  26
BREWSTER         N/A     32  22  67 S14         N/A  WCI  22
ROSE             N/A     33  23  65 E13         N/A  WCI  24
NEWPORT          N/A     33  20  57 S9          N/A  WCI  26
SARGENT          N/A     29  19  64 S8          N/A  WCI  21
COMSTOCK         N/A     34  20  58 S16         N/A  WCI  23
CHAMBERS         N/A     30  13  48 S9G17       N/A  WCI  22
EWING            N/A     30  19  62 S9          N/A  WCI  22
$$

...OBSERVATIONS IN SOUTHWEST NEBRASKA AND FAR NORTHEAST COLORADO...

CITY           SKY/WX    TMP DP  RH WIND       PRES   REMARKS
WRAY           MOCLDY    33  31  92 SE8       29.55F WCI  26
IMPERIAL         N/A     31  27  85 SE13      29.60F FOG     WCI  21
OGALLALA       CLOUDY    29  28  97 SE9       29.63F FOG     WCI  21
NORTH PLATTE   CLOUDY    29  22  75 SE10      29.67F WCI  20
MCCOOK         CLOUDY    31  23  72 SE14      29.67F WCI  21
LEXINGTON      CLOUDY    30  21  69 SE15      29.72F WCI  19
PAXTON           N/A     29  27  90 E7          N/A  WCI  22
BRADY            N/A     28  22  76 CALM        N/A
GOTHENBURG       N/A     30  22  72 SE8         N/A  WCI  22
CALLAWAY         N/A     28  23  81 S20         N/A  WCI  15
$$

...NORTH PLATTE AREA...

CITY           SKY/WX    TMP DP  RH WIND       PRES   REMARKS
AIRPORT        CLOUDY    29  22  75 SE10      29.67F WCI  20
DOWNTOWN         N/A     28  22  79 SE7         N/A  WCI  21
$$

...SOME WEATHER OBSERVATIONS FROM AROUND THE REGION...

CITY           SKY/WX    TMP DP  RH WIND       PRES   REMARKS
DENVER         FAIR      30  23  75 NW12      29.58R HAZE    WCI  20
LARAMIE        FLURRIES  32  30  92 SW14G25   29.60R WCI  22
CHEYENNE       CLOUDY    32  25  75 SW7       29.55F WCI  26
SCOTTSBLUFF    CLOUDY    30  24  78 E10       29.65F WCI  21
RAPID CITY     FLURRIES  36  23  59 N9        29.70R WCI  29
PIERRE         CLOUDY    36  20  52 SE9       29.71F WCI  29
WINNER         FAIR      34  16  47 S14       29.73F WCI  25
SIOUX FALLS    CLOUDY    28  19  69 SE23      29.88F WCI  14
OMAHA          CLOUDY    33  20  58 S16       29.96F WCI  23
GRAND ISLAND   CLOUDY    29  19  66 S15       29.83F WCI  18
KANSAS CITY    CLOUDY    34  24  67 S15       30.00F WCI  24
WICHITA        CLOUDY    32  30  92 S23G30    29.96F FOG     WCI  19
HAYS           FAIR      30  18  59 S15       29.80F WCI  19
LIBERAL        FAIR      36  30  80 S22       29.81F WCI  24
GOODLAND       MOCLDY    32  30  92 S25G32    29.57F WCI  19
$$



USA.gov is the U.S. government's official web portal to all federal, state and local government web resources and services.